Time,TemperatureF,DewpointF,PressureIn,WindDirection,WindDirectionDegrees,WindSpeedMPH,WindSpeedGustMPH,Humidity,HourlyPrecipIn,Conditions,Clouds,dailyrainin,SoftwareType,DateUTC
2013-04-25 00:00:00,64.4,58.8,30.03,SSW,211,0.0,0.0,82,0.00,,---,0.00,VWS V14.01,2013-04-25 04:00:00,
2013-04-25 00:01:00,64.4,58.8,30.03,South,175,0.0,0.0,82,0.00,,---,0.00,VWS V14.01,2013-04-25 04:01:00,
2013-04-25 00:06:00,64.2,59.0,30.03,WNW,290,0.0,0.0,83,0.00,,---,0.00,VWS V14.01,2013-04-25 04:06:00,
2013-04-25 00:11:00,64.2,59.0,30.03,WNW,298,0.0,0.0,83,0.00,,---,0.00,VWS V14.01,2013-04-25 04:11:00,
2013-04-25 00:16:00,64.2,59.0,30.03,SW,219,0.0,0.0,83,0.00,,---,0.00,VWS V14.01,2013-04-25 04:16:00,
2013-04-25 00:21:00,64.2,59.0,30.03,WSW,247,0.0,0.0,83,0.00,,---,0.00,VWS V14.01,2013-04-25 04:21:00,
2013-04-25 00:26:00,64.2,59.0,30.03,WNW,289,0.0,0.0,83,0.00,,---,0.00,VWS V14.01,2013-04-25 04:26:00,
2013-04-25 00:31:00,64.2,59.0,30.03,SSW,197,0.0,0.0,83,0.00,,---,0.00,VWS V14.01,2013-04-25 04:31:00,
2013-04-25 00:36:00,64.2,59.3,30.03,SW,232,0.0,0.0,84,0.00,,---,0.00,VWS V14.01,2013-04-25 04:36:00,
2013-04-25 00:41:00,64.2,59.3,30.03,SSW,208,0.0,0.0,84,0.00,,---,0.00,VWS V14.01,2013-04-25 04:41:00,
2013-04-25 00:46:00,64.2,59.3,30.03,SW,224,0.0,0.0,84,0.00,,---,0.00,VWS V14.01,2013-04-25 04:46:00,
2013-04-25 00:51:00,64.4,59.5,30.03,South,191,0.0,0.0,84,0.00,,---,0.00,VWS V14.01,2013-04-25 04:51:00,
2013-04-25 00:56:00,64.4,59.5,30.03,SW,229,0.0,0.0,84,0.00,,---,0.00,VWS V14.01,2013-04-25 04:56:00,
2013-04-25 01:01:00,64.4,59.5,30.03,West,276,0.0,0.0,84,0.00,,---,0.00,VWS V14.01,2013-04-25 05:01:00,
2013-04-25 01:06:00,64.4,59.5,30.03,WSW,244,0.0,0.0,84,0.00,,---,0.00,VWS V14.01,2013-04-25 05:06:00,
2013-04-25 01:11:00,64.4,59.5,30.03,SSW,200,0.0,0.0,84,0.00,,---,0.00,VWS V14.01,2013-04-25 05:11:00,
2013-04-25 01:16:00,64.4,59.5,30.03,SW,216,0.0,0.0,84,0.00,,---,0.00,VWS V14.01,2013-04-25 05:16:00,
2013-04-25 01:21:00,64.4,59.5,30.03,SW,229,0.0,0.0,84,0.00,,---,0.00,VWS V14.01,2013-04-25 05:21:00,
2013-04-25 01:26:00,64.4,59.5,30.03,SSW,207,0.0,0.0,84,0.00,,---,0.00,VWS V14.01,2013-04-25 05:26:00,
2013-04-25 01:31:00,64.2,59.6,30.03,WSW,247,0.0,0.0,85,0.00,,---,0.00,VWS V14.01,2013-04-25 05:31:00,
2013-04-25 01:36:00,64.2,59.6,30.03,WSW,250,0.0,0.0,85,0.00,,---,0.00,VWS V14.01,2013-04-25 05:36:00,
2013-04-25 01:41:00,64.2,59.6,30.00,South,173,0.0,0.0,85,0.00,,---,0.00,VWS V14.01,2013-04-25 05:41:00,
2013-04-25 01:46:00,64.2,59.6,30.00,SSW,207,0.0,0.0,85,0.00,,---,0.00,VWS V14.01,2013-04-25 05:46:00,
2013-04-25 01:51:00,64.2,60.0,30.00,SSW,205,0.0,0.0,86,0.00,,---,0.00,VWS V14.01,2013-04-25 05:51:00,
2013-04-25 01:56:00,64.4,59.8,30.00,South,186,0.0,0.0,85,0.00,,---,0.00,VWS V14.01,2013-04-25 05:56:00,
2013-04-25 02:01:00,64.4,60.1,30.00,SSW,197,0.0,0.0,86,0.00,,---,0.00,VWS V14.01,2013-04-25 06:01:00,
2013-04-25 02:06:00,64.2,60.0,30.00,South,172,0.0,0.0,86,0.00,,---,0.00,VWS V14.01,2013-04-25 06:06:00,
2013-04-25 02:11:00,64.2,60.3,30.00,South,172,0.0,0.0,87,0.00,,---,0.00,VWS V14.01,2013-04-25 06:11:00,
2013-04-25 02:16:00,64.2,60.3,30.00,SW,235,0.0,0.0,87,0.00,,---,0.00,VWS V14.01,2013-04-25 06:16:00,
2013-04-25 02:21:00,64.2,60.3,30.00,SW,218,0.0,0.0,87,0.00,,---,0.00,VWS V14.01,2013-04-25 06:21:00,
2013-04-25 02:26:00,64.2,60.3,30.00,SW,231,0.0,0.0,87,0.00,,---,0.00,VWS V14.01,2013-04-25 06:26:00,
2013-04-25 02:31:00,64.4,60.5,30.00,SW,216,0.0,0.0,87,0.00,,---,0.00,VWS V14.01,2013-04-25 06:31:00,
2013-04-25 02:36:00,64.4,60.5,30.00,SSW,204,0.0,0.0,87,0.00,,---,0.00,VWS V14.01,2013-04-25 06:36:00,
2013-04-25 02:41:00,64.4,60.8,30.00,SW,235,0.0,0.0,88,0.00,,---,0.00,VWS V14.01,2013-04-25 06:41:00,
2013-04-25 02:46:00,64.4,60.8,30.00,SSE,160,0.0,0.0,88,0.00,,---,0.00,VWS V14.01,2013-04-25 06:46:00,
2013-04-25 02:51:00,64.4,60.8,30.00,South,170,0.0,0.0,88,0.00,,---,0.00,VWS V14.01,2013-04-25 06:51:00,
2013-04-25 02:56:00,64.4,60.8,30.00,SW,218,0.0,0.0,88,0.00,,---,0.00,VWS V14.01,2013-04-25 06:56:00,
2013-04-25 03:01:00,64.4,60.8,30.00,WSW,240,0.0,0.0,88,0.00,,---,0.00,VWS V14.01,2013-04-25 07:01:00,
2013-04-25 03:06:00,64.4,60.8,30.00,West,275,0.0,0.0,88,0.00,,---,0.00,VWS V14.01,2013-04-25 07:06:00,
2013-04-25 03:11:00,64.4,60.8,30.00,SW,219,0.0,0.0,88,0.00,,---,0.00,VWS V14.01,2013-04-25 07:11:00,
2013-04-25 03:16:00,64.4,60.8,30.00,WSW,245,0.0,0.0,88,0.00,,---,0.00,VWS V14.01,2013-04-25 07:16:00,
2013-04-25 03:21:00,64.4,60.8,30.00,South,171,0.0,0.0,88,0.00,,---,0.00,VWS V14.01,2013-04-25 07:21:00,
2013-04-25 03:26:00,64.4,60.8,30.00,SW,234,0.0,0.0,88,0.00,,---,0.00,VWS V14.01,2013-04-25 07:26:00,
2013-04-25 03:31:00,64.4,60.8,30.00,WSW,248,0.0,0.0,88,0.00,,---,0.00,VWS V14.01,2013-04-25 07:31:00,
2013-04-25 03:36:00,64.2,60.9,30.00,WSW,243,0.0,0.0,89,0.00,,---,0.00,VWS V14.01,2013-04-25 07:36:00,
2013-04-25 03:41:00,64.2,60.6,30.00,WSW,250,0.0,0.0,88,0.00,,---,0.00,VWS V14.01,2013-04-25 07:41:00,
2013-04-25 03:46:00,64.2,60.6,30.00,WSW,255,0.0,0.0,88,0.00,,---,0.00,VWS V14.01,2013-04-25 07:46:00,
2013-04-25 03:50:00,64.2,60.6,30.00,WSW,246,0.0,0.0,88,0.00,,---,0.00,VWS V14.01,2013-04-25 07:50:00,
2013-04-25 03:55:00,64.0,60.4,30.00,West,261,0.0,0.0,88,0.00,,---,0.00,VWS V14.01,2013-04-25 07:55:00,
2013-04-25 04:00:00,64.0,60.4,30.00,SW,235,0.0,0.0,88,0.00,,---,0.00,VWS V14.01,2013-04-25 08:00:00,
2013-04-25 04:05:00,64.0,60.4,30.00,SW,234,0.0,0.0,88,0.00,,---,0.00,VWS V14.01,2013-04-25 08:05:00,
2013-04-25 04:10:00,64.0,60.4,30.03,WSW,240,0.0,0.0,88,0.00,,---,0.00,VWS V14.01,2013-04-25 08:10:00,
2013-04-25 04:15:00,64.0,60.4,30.03,WSW,247,0.0,0.0,88,0.00,,---,0.00,VWS V14.01,2013-04-25 08:15:00,
2013-04-25 04:20:00,64.0,60.4,30.03,West,263,0.0,0.0,88,0.00,,---,0.00,VWS V14.01,2013-04-25 08:20:00,
2013-04-25 04:25:00,63.9,60.6,30.03,WSW,246,0.0,0.0,89,0.00,,---,0.00,VWS V14.01,2013-04-25 08:25:00,
2013-04-25 04:30:00,63.9,60.6,30.03,WSW,256,0.0,0.0,89,0.00,,---,0.00,VWS V14.01,2013-04-25 08:30:00,
2013-04-25 04:35:00,63.9,60.6,30.03,WSW,248,0.0,0.0,89,0.00,,---,0.00,VWS V14.01,2013-04-25 08:35:00,
2013-04-25 04:40:00,63.9,60.6,30.03,WSW,248,0.0,0.0,89,0.00,,---,0.00,VWS V14.01,2013-04-25 08:40:00,
2013-04-25 04:45:00,63.7,60.4,30.03,WSW,237,0.0,0.0,89,0.00,,---,0.00,VWS V14.01,2013-04-25 08:45:00,
2013-04-25 04:50:00,63.9,60.6,30.03,SW,224,0.0,0.0,89,0.00,,---,0.00,VWS V14.01,2013-04-25 08:50:00,
2013-04-25 04:55:00,63.9,60.6,30.03,SW,233,0.0,0.0,89,0.00,,---,0.00,VWS V14.01,2013-04-25 08:55:00,
2013-04-25 05:00:00,63.9,60.6,30.03,WSW,239,0.0,0.0,89,0.00,,---,0.00,VWS V14.01,2013-04-25 09:00:00,
2013-04-25 05:05:00,63.9,60.6,30.03,SW,232,0.0,0.0,89,0.00,,---,0.00,VWS V14.01,2013-04-25 09:05:00,
2013-04-25 05:10:00,63.9,60.9,30.03,WNW,286,0.0,0.0,90,0.00,,---,0.00,VWS V14.01,2013-04-25 09:10:00,
2013-04-25 05:15:00,63.9,60.9,30.03,WSW,246,0.0,0.0,90,0.00,,---,0.00,VWS V14.01,2013-04-25 09:15:00,
2013-04-25 05:20:00,63.9,60.9,30.03,WSW,250,0.0,0.0,90,0.00,,---,0.00,VWS V14.01,2013-04-25 09:20:00,
2013-04-25 05:25:00,63.9,60.9,30.03,WSW,256,0.0,0.0,90,0.00,,---,0.00,VWS V14.01,2013-04-25 09:25:00,
2013-04-25 05:30:00,63.9,60.9,30.03,SW,230,0.0,0.0,90,0.00,,---,0.00,VWS V14.01,2013-04-25 09:30:00,
2013-04-25 05:35:00,63.9,60.9,30.03,West,269,0.0,0.0,90,0.00,,---,0.00,VWS V14.01,2013-04-25 09:35:00,
2013-04-25 05:40:00,63.9,60.9,30.06,SW,216,0.0,0.0,90,0.00,,---,0.00,VWS V14.01,2013-04-25 09:40:00,
2013-04-25 05:45:00,63.9,60.9,30.06,SSW,198,0.0,0.0,90,0.00,,---,0.00,VWS V14.01,2013-04-25 09:45:00,
2013-04-25 05:50:00,63.9,60.9,30.06,WSW,251,0.0,0.0,90,0.00,,---,0.00,VWS V14.01,2013-04-25 09:50:00,
2013-04-25 05:55:00,63.9,60.9,30.06,WSW,251,0.0,0.0,90,0.00,,---,0.00,VWS V14.01,2013-04-25 09:55:00,
2013-04-25 06:00:00,63.9,60.9,30.06,WSW,254,0.0,0.0,90,0.00,,---,0.00,VWS V14.01,2013-04-25 10:00:00,
2013-04-25 06:05:00,63.9,60.9,30.06,SW,230,0.0,0.0,90,0.00,,---,0.00,VWS V14.01,2013-04-25 10:05:00,
2013-04-25 06:10:00,63.7,60.7,30.06,West,260,0.0,0.0,90,0.00,,---,0.00,VWS V14.01,2013-04-25 10:10:00,
2013-04-25 06:15:00,63.9,60.9,30.06,West,267,0.0,0.0,90,0.00,,---,0.00,VWS V14.01,2013-04-25 10:15:00,
2013-04-25 06:20:00,63.7,60.7,30.06,WSW,247,0.0,0.0,90,0.00,,---,0.00,VWS V14.01,2013-04-25 10:20:00,
2013-04-25 06:25:00,63.7,60.7,30.06,West,260,0.0,0.0,90,0.00,,---,0.00,VWS V14.01,2013-04-25 10:25:00,
2013-04-25 06:30:00,63.7,60.7,30.06,WSW,239,0.0,0.0,90,0.00,,---,0.00,VWS V14.01,2013-04-25 10:30:00,
2013-04-25 06:35:00,63.7,60.7,30.06,West,268,0.0,0.0,90,0.00,,---,0.00,VWS V14.01,2013-04-25 10:35:00,
2013-04-25 06:40:00,63.7,60.7,30.06,WSW,250,0.0,0.0,90,0.00,,---,0.00,VWS V14.01,2013-04-25 10:40:00,
2013-04-25 06:45:00,63.7,60.7,30.06,WSW,250,0.0,0.0,90,0.00,,---,0.00,VWS V14.01,2013-04-25 10:45:00,
2013-04-25 06:50:00,63.7,60.7,30.06,WSW,247,0.0,0.0,90,0.00,,---,0.00,VWS V14.01,2013-04-25 10:50:00,
2013-04-25 06:55:00,63.7,60.7,30.06,WSW,248,0.0,0.0,90,0.00,,---,0.00,VWS V14.01,2013-04-25 10:55:00,
2013-04-25 07:00:00,63.7,60.7,30.06,WSW,249,0.0,0.0,90,0.00,,---,0.00,VWS V14.01,2013-04-25 11:00:00,
2013-04-25 07:05:00,63.7,60.7,30.06,WSW,246,0.0,0.0,90,0.00,,---,0.00,VWS V14.01,2013-04-25 11:05:00,
2013-04-25 07:10:00,63.7,60.7,30.09,WSW,246,0.0,0.0,90,0.00,,---,0.00,VWS V14.01,2013-04-25 11:10:00,
2013-04-25 07:15:00,63.7,60.7,30.09,WSW,245,0.0,0.0,90,0.00,,---,0.00,VWS V14.01,2013-04-25 11:15:00,
2013-04-25 07:20:00,63.7,60.7,30.09,WSW,245,0.0,0.0,90,0.00,,---,0.00,VWS V14.01,2013-04-25 11:20:00,
2013-04-25 07:25:00,63.7,60.7,30.09,WSW,245,0.0,0.0,90,0.00,,---,0.00,VWS V14.01,2013-04-25 11:25:00,
2013-04-25 07:30:00,63.7,60.7,30.09,WSW,245,0.0,0.0,90,0.00,,---,0.00,VWS V14.01,2013-04-25 11:30:00,
2013-04-25 07:35:00,63.7,60.7,30.09,WSW,247,0.0,0.0,90,0.00,,---,0.00,VWS V14.01,2013-04-25 11:35:00,
2013-04-25 07:40:00,63.5,60.5,30.09,WSW,247,0.0,0.0,90,0.00,,---,0.00,VWS V14.01,2013-04-25 11:40:00,
2013-04-25 07:45:00,63.5,60.5,30.09,WSW,247,0.0,0.0,90,0.00,,---,0.00,VWS V14.01,2013-04-25 11:45:00,
2013-04-25 07:50:00,63.5,60.5,30.09,WSW,247,0.0,0.0,90,0.00,,---,0.00,VWS V14.01,2013-04-25 11:50:00,
2013-04-25 07:55:00,63.5,60.5,30.09,WSW,247,0.0,0.0,90,0.00,,---,0.00,VWS V14.01,2013-04-25 11:55:00,
2013-04-25 08:00:00,63.5,60.5,30.09,WSW,247,0.0,0.0,90,0.00,,---,0.00,VWS V14.01,2013-04-25 12:00:00,
2013-04-25 08:05:00,63.5,60.5,30.09,WSW,247,0.0,0.0,90,0.00,,---,0.00,VWS V14.01,2013-04-25 12:05:00,
2013-04-25 08:10:00,63.5,60.5,30.09,WSW,247,0.0,0.0,90,0.00,,---,0.00,VWS V14.01,2013-04-25 12:10:00,
2013-04-25 08:15:00,63.5,60.5,30.09,WSW,247,0.0,0.0,90,0.00,,---,0.00,VWS V14.01,2013-04-25 12:15:00,
2013-04-25 08:20:00,63.5,60.5,30.09,WSW,246,0.0,0.0,90,0.00,,---,0.00,VWS V14.01,2013-04-25 12:20:00,
2013-04-25 08:25:00,63.5,60.5,30.09,WSW,246,0.0,0.0,90,0.00,,---,0.00,VWS V14.01,2013-04-25 12:25:00,
2013-04-25 08:30:00,63.7,60.7,30.09,WSW,246,0.0,0.0,90,0.00,,---,0.00,VWS V14.01,2013-04-25 12:30:00,
2013-04-25 08:35:00,63.7,60.7,30.09,WSW,246,0.0,0.0,90,0.00,,---,0.00,VWS V14.01,2013-04-25 12:35:00,
2013-04-25 08:40:00,63.9,60.9,30.09,WSW,246,0.0,0.0,90,0.00,,---,0.00,VWS V14.01,2013-04-25 12:40:00,
2013-04-25 08:45:00,63.9,60.9,30.09,WSW,246,0.0,0.0,90,0.00,,---,0.00,VWS V14.01,2013-04-25 12:45:00,
2013-04-25 08:50:00,63.9,60.9,30.09,WSW,246,0.0,0.0,90,0.00,,---,0.00,VWS V14.01,2013-04-25 12:50:00,
2013-04-25 08:55:00,64.0,61.0,30.12,WSW,246,0.0,0.0,90,0.00,,---,0.00,VWS V14.01,2013-04-25 12:55:00,
2013-04-25 09:00:00,64.2,61.2,30.12,WSW,246,0.0,0.0,90,0.00,,---,0.00,VWS V14.01,2013-04-25 13:00:00,
2013-04-25 09:05:00,64.4,61.1,30.12,WSW,246,0.0,0.0,89,0.00,,---,0.00,VWS V14.01,2013-04-25 13:05:00,
2013-04-25 09:10:00,64.6,61.3,30.12,WSW,246,0.0,0.0,89,0.00,,---,0.00,VWS V14.01,2013-04-25 13:10:00,
2013-04-25 09:15:00,64.9,61.9,30.12,WSW,247,0.0,0.0,90,0.00,,---,0.00,VWS V14.01,2013-04-25 13:15:00,
2013-04-25 09:20:00,65.1,61.8,30.12,WSW,247,0.0,0.0,89,0.00,,---,0.00,VWS V14.01,2013-04-25 13:20:00,
2013-04-25 09:25:00,65.5,62.2,30.09,NW,326,0.0,0.0,89,0.00,,---,0.00,VWS V14.01,2013-04-25 13:25:00,
2013-04-25 09:30:00,65.7,62.3,30.09,NW,304,0.0,0.0,89,0.00,,---,0.00,VWS V14.01,2013-04-25 13:30:00,
2013-04-25 09:35:00,66.2,62.5,30.09,North,0,0.0,0.0,88,0.00,,---,0.00,VWS V14.01,2013-04-25 13:35:00,
2013-04-25 09:40:00,66.4,62.1,30.09,North,353,0.0,0.0,86,0.00,,---,0.00,VWS V14.01,2013-04-25 13:40:00,
2013-04-25 09:45:00,66.6,61.6,30.09,NNW,344,0.0,0.0,84,0.00,,---,0.00,VWS V14.01,2013-04-25 13:45:00,
2013-04-25 09:50:00,66.9,60.6,30.09,NW,323,0.0,0.0,80,0.00,,---,0.00,VWS V14.01,2013-04-25 13:50:00,
2013-04-25 09:55:00,67.5,60.0,30.12,NNW,330,0.0,0.0,77,0.00,,---,0.00,VWS V14.01,2013-04-25 13:55:00,
2013-04-25 10:00:00,67.6,58.7,30.12,NW,326,0.0,0.0,73,0.00,,---,0.00,VWS V14.01,2013-04-25 14:00:00,
2013-04-25 10:05:00,67.3,57.6,30.12,North,349,0.0,0.0,71,0.00,,---,0.00,VWS V14.01,2013-04-25 14:05:00,
2013-04-25 10:10:00,67.1,56.6,30.12,NNW,341,0.0,0.0,69,0.00,,---,0.00,VWS V14.01,2013-04-25 14:10:00,
2013-04-25 10:15:00,67.1,56.2,30.12,NNE,32,0.0,0.0,68,0.00,,---,0.00,VWS V14.01,2013-04-25 14:15:00,
2013-04-25 10:20:00,67.1,56.2,30.12,WNW,303,0.0,0.0,68,0.00,,---,0.00,VWS V14.01,2013-04-25 14:20:00,
2013-04-25 10:25:00,67.1,56.2,30.12,North,357,0.0,0.0,68,0.00,,---,0.00,VWS V14.01,2013-04-25 14:25:00,
2013-04-25 10:30:00,67.1,55.8,30.12,North,353,0.0,0.0,67,0.00,,---,0.00,VWS V14.01,2013-04-25 14:30:00,
2013-04-25 10:35:00,67.1,55.4,30.12,NW,325,0.0,0.0,66,0.00,,---,0.00,VWS V14.01,2013-04-25 14:35:00,
2013-04-25 10:40:00,67.1,55.4,30.12,North,353,0.0,0.0,66,0.00,,---,0.00,VWS V14.01,2013-04-25 14:40:00,
2013-04-25 10:45:00,66.9,54.8,30.12,North,353,0.0,2.2,65,0.00,,---,0.00,VWS V14.01,2013-04-25 14:45:00,
2013-04-25 10:50:00,66.9,54.8,30.12,East,89,0.0,4.0,65,0.00,,---,0.00,VWS V14.01,2013-04-25 14:50:00,
2013-04-25 10:55:00,67.1,54.5,30.12,North,350,0.0,3.6,64,0.00,,---,0.00,VWS V14.01,2013-04-25 14:55:00,
2013-04-25 11:00:00,67.3,54.3,30.12,NNE,33,0.0,0.0,63,0.00,,---,0.00,VWS V14.01,2013-04-25 15:00:00,
2013-04-25 11:05:00,67.5,54.4,30.12,North,357,0.0,0.0,63,0.00,,---,0.00,VWS V14.01,2013-04-25 15:05:00,
2013-04-25 11:10:00,67.6,54.2,30.12,NNW,345,4.0,4.0,62,0.00,,---,0.00,VWS V14.01,2013-04-25 15:10:00,
2013-04-25 11:15:00,67.6,54.2,30.12,North,6,0.0,0.0,62,0.00,,---,0.00,VWS V14.01,2013-04-25 15:15:00,
2013-04-25 11:20:00,67.8,54.3,30.12,ENE,61,4.0,4.0,62,0.00,,---,0.00,VWS V14.01,2013-04-25 15:20:00,
2013-04-25 11:25:00,67.6,53.7,30.12,NNE,24,0.0,0.0,61,0.00,,---,0.00,VWS V14.01,2013-04-25 15:25:00,
2013-04-25 11:30:00,67.6,53.7,30.12,NNE,22,0.0,3.1,61,0.00,,---,0.00,VWS V14.01,2013-04-25 15:30:00,
2013-04-25 11:35:00,67.8,53.9,30.12,ENE,61,0.0,2.7,61,0.00,,---,0.00,VWS V14.01,2013-04-25 15:35:00,
2013-04-25 11:40:00,68.0,53.6,30.12,NW,326,0.0,0.0,60,0.00,,---,0.00,VWS V14.01,2013-04-25 15:40:00,
2013-04-25 11:45:00,68.0,53.6,30.12,NE,42,0.0,0.0,60,0.00,,---,0.00,VWS V14.01,2013-04-25 15:45:00,
2013-04-25 11:50:00,68.2,53.8,30.12,North,11,6.7,6.7,60,0.00,,---,0.00,VWS V14.01,2013-04-25 15:50:00,
2013-04-25 11:55:00,68.5,54.1,30.12,NNW,335,6.0,6.0,60,0.00,,---,0.00,VWS V14.01,2013-04-25 15:55:00,
2013-04-25 12:00:00,68.9,53.5,30.12,NE,51,0.0,4.0,58,0.00,,---,0.00,VWS V14.01,2013-04-25 16:00:00,
2013-04-25 12:05:00,68.7,53.4,30.12,North,6,0.0,4.9,58,0.00,,---,0.00,VWS V14.01,2013-04-25 16:05:00,
2013-04-25 12:10:00,68.7,53.4,30.12,ENE,78,0.0,4.9,58,0.00,,---,0.00,VWS V14.01,2013-04-25 16:10:00,
2013-04-25 12:15:00,68.7,53.4,30.12,ENE,57,0.0,0.0,58,0.00,,---,0.00,VWS V14.01,2013-04-25 16:15:00,
2013-04-25 12:20:00,68.5,53.2,30.12,ENE,78,6.0,6.0,58,0.00,,---,0.00,VWS V14.01,2013-04-25 16:20:00,
2013-04-25 12:25:00,68.4,53.5,30.12,East,83,0.0,4.0,59,0.00,,---,0.00,VWS V14.01,2013-04-25 16:25:00,
2013-04-25 12:30:00,68.4,54.0,30.12,ENE,62,6.0,6.0,60,0.00,,---,0.00,VWS V14.01,2013-04-25 16:30:00,
2013-04-25 12:35:00,68.4,54.0,30.12,ENE,72,0.0,0.0,60,0.00,,---,0.00,VWS V14.01,2013-04-25 16:35:00,
2013-04-25 12:40:00,68.5,54.6,30.12,East,95,0.0,2.2,61,0.00,,---,0.00,VWS V14.01,2013-04-25 16:40:00,
2013-04-25 12:45:00,68.9,54.9,30.12,NE,53,4.0,4.0,61,0.00,,---,0.00,VWS V14.01,2013-04-25 16:45:00,
2013-04-25 12:50:00,68.2,53.8,30.12,NE,48,0.0,0.0,60,0.00,,---,0.00,VWS V14.01,2013-04-25 16:50:00,
2013-04-25 12:55:00,67.5,53.1,30.12,NNE,31,0.0,0.0,60,0.00,,---,0.00,VWS V14.01,2013-04-25 16:55:00,
2013-04-25 13:00:00,66.9,53.5,30.12,ENE,64,0.0,4.5,62,0.00,,---,0.00,VWS V14.01,2013-04-25 17:00:00,
2013-04-25 13:05:00,66.0,54.3,30.12,ENE,62,0.0,0.0,66,0.00,,---,0.00,VWS V14.01,2013-04-25 17:05:00,
2013-04-25 13:10:00,65.7,55.2,30.15,NE,54,4.0,5.4,69,0.00,,---,0.00,VWS V14.01,2013-04-25 17:10:00,
2013-04-25 13:15:00,65.1,55.1,30.15,ENE,61,0.0,3.1,70,0.00,,---,0.00,VWS V14.01,2013-04-25 17:15:00,
2013-04-25 13:20:00,65.1,55.5,30.15,East,89,6.0,6.3,71,0.04,,---,0.04,VWS V14.01,2013-04-25 17:20:00,
2013-04-25 13:25:00,65.1,55.9,30.15,East,81,0.0,0.0,72,0.04,,---,0.04,VWS V14.01,2013-04-25 17:25:00,
2013-04-25 13:30:00,64.8,55.9,30.15,NE,56,0.0,3.1,73,0.04,,---,0.04,VWS V14.01,2013-04-25 17:30:00,
2013-04-25 13:35:00,64.6,56.1,30.15,NNE,31,0.0,5.4,74,0.04,,---,0.04,VWS V14.01,2013-04-25 17:35:00,
2013-04-25 13:40:00,64.8,56.7,30.12,East,94,0.0,0.0,75,0.04,,---,0.04,VWS V14.01,2013-04-25 17:40:00,
2013-04-25 13:45:00,64.8,57.0,30.12,ESE,106,5.4,8.1,76,0.04,,---,0.04,VWS V14.01,2013-04-25 17:45:00,
2013-04-25 13:50:00,64.8,57.0,30.12,SE,136,7.4,7.4,76,0.04,,---,0.04,VWS V14.01,2013-04-25 17:50:00,
2013-04-25 13:55:00,64.9,57.6,30.12,NE,54,11.4,11.4,77,0.04,,---,0.04,VWS V14.01,2013-04-25 17:55:00,
2013-04-25 14:00:00,64.8,57.0,30.12,ENE,77,0.0,0.0,76,0.04,,---,0.04,VWS V14.01,2013-04-25 18:00:00,
2013-04-25 14:05:00,65.1,57.4,30.12,East,101,6.0,6.3,76,0.04,,---,0.04,VWS V14.01,2013-04-25 18:05:00,
2013-04-25 14:10:00,64.8,56.3,30.15,ENE,61,0.0,0.0,74,0.04,,---,0.04,VWS V14.01,2013-04-25 18:10:00,
2013-04-25 14:15:00,64.8,55.9,30.15,East,96,0.0,0.0,73,0.04,,---,0.04,VWS V14.01,2013-04-25 18:15:00,
2013-04-25 14:20:00,64.9,56.1,30.15,SE,144,0.0,0.0,73,0.00,,---,0.04,VWS V14.01,2013-04-25 18:20:00,
2013-04-25 14:25:00,64.8,55.2,30.12,ENE,60,0.0,0.0,71,0.00,,---,0.04,VWS V14.01,2013-04-25 18:25:00,
2013-04-25 14:30:00,64.8,54.8,30.12,ESE,102,0.0,0.0,70,0.00,,---,0.04,VWS V14.01,2013-04-25 18:30:00,
2013-04-25 14:35:00,64.8,54.4,30.12,ESE,118,0.0,0.0,69,0.00,,---,0.04,VWS V14.01,2013-04-25 18:35:00,
2013-04-25 14:40:00,64.8,54.0,30.15,East,99,0.0,0.0,68,0.00,,---,0.04,VWS V14.01,2013-04-25 18:40:00,
2013-04-25 14:45:00,64.8,53.6,30.15,ESE,108,0.0,0.0,67,0.00,,---,0.04,VWS V14.01,2013-04-25 18:45:00,
2013-04-25 14:50:00,64.8,53.2,30.15,ENE,69,0.0,0.0,66,0.00,,---,0.04,VWS V14.01,2013-04-25 18:50:00,
2013-04-25 14:55:00,64.8,52.7,30.15,ENE,59,0.0,0.0,65,0.00,,---,0.04,VWS V14.01,2013-04-25 18:55:00,
2013-04-25 15:00:00,64.8,52.3,30.15,NE,40,0.0,0.0,64,0.00,,---,0.04,VWS V14.01,2013-04-25 19:00:00,
2013-04-25 15:05:00,64.9,52.1,30.15,East,96,0.0,0.0,63,0.00,,---,0.04,VWS V14.01,2013-04-25 19:05:00,
2013-04-25 15:10:00,64.9,51.6,30.15,SE,130,5.4,6.3,62,0.00,,---,0.04,VWS V14.01,2013-04-25 19:10:00,
2013-04-25 15:15:00,65.5,52.1,30.15,SE,128,0.0,0.0,62,0.00,,---,0.04,VWS V14.01,2013-04-25 19:15:00,
2013-04-25 15:20:00,65.5,51.7,30.15,East,82,7.4,7.6,61,0.00,,---,0.04,VWS V14.01,2013-04-25 19:20:00,
2013-04-25 15:25:00,65.5,51.2,30.12,East,86,0.0,0.0,60,0.00,,---,0.04,VWS V14.01,2013-04-25 19:25:00,
2013-04-25 15:30:00,65.7,51.4,30.12,East,89,0.0,0.0,60,0.00,,---,0.04,VWS V14.01,2013-04-25 19:30:00,
2013-04-25 15:35:00,65.5,51.2,30.12,East,96,4.7,10.5,60,0.00,,---,0.04,VWS V14.01,2013-04-25 19:35:00,
2013-04-25 15:40:00,65.3,51.5,30.12,East,100,7.4,7.4,61,0.00,,---,0.04,VWS V14.01,2013-04-25 19:40:00,
2013-04-25 15:45:00,65.5,51.7,30.12,ENE,66,8.7,8.7,61,0.00,,---,0.04,VWS V14.01,2013-04-25 19:45:00,
2013-04-25 15:50:00,65.7,51.4,30.12,ESE,110,0.0,5.4,60,0.00,,---,0.04,VWS V14.01,2013-04-25 19:50:00,
2013-04-25 15:55:00,65.7,51.4,30.12,East,91,0.0,0.0,60,0.00,,---,0.04,VWS V14.01,2013-04-25 19:55:00,
2013-04-25 16:00:00,65.5,51.7,30.12,East,99,0.0,0.0,61,0.00,,---,0.04,VWS V14.01,2013-04-25 20:00:00,
2013-04-25 16:05:00,65.3,51.5,30.12,East,90,0.0,0.0,61,0.00,,---,0.04,VWS V14.01,2013-04-25 20:05:00,
2013-04-25 16:10:00,65.5,51.7,30.12,ESE,118,0.0,0.0,61,0.00,,---,0.04,VWS V14.01,2013-04-25 20:10:00,
2013-04-25 16:15:00,65.1,50.9,30.12,ESE,106,0.0,0.0,60,0.00,,---,0.04,VWS V14.01,2013-04-25 20:15:00,
2013-04-25 16:20:00,64.8,51.0,30.12,SE,146,0.0,0.0,61,0.00,,---,0.04,VWS V14.01,2013-04-25 20:20:00,
2013-04-25 16:25:00,64.8,51.0,30.12,East,88,0.0,0.0,61,0.00,,---,0.04,VWS V14.01,2013-04-25 20:25:00,
2013-04-25 16:30:00,64.8,51.5,30.12,ESE,110,0.0,0.0,62,0.00,,---,0.04,VWS V14.01,2013-04-25 20:30:00,
2013-04-25 16:35:00,65.1,51.3,30.12,SE,125,0.0,0.0,61,0.00,,---,0.04,VWS V14.01,2013-04-25 20:35:00,
2013-04-25 16:40:00,65.1,50.9,30.12,East,83,0.0,0.0,60,0.00,,---,0.04,VWS V14.01,2013-04-25 20:40:00,
2013-04-25 16:45:00,65.1,50.5,30.12,ESE,109,0.0,0.0,59,0.00,,---,0.04,VWS V14.01,2013-04-25 20:45:00,
2013-04-25 16:50:00,64.9,50.3,30.12,ESE,116,0.0,0.0,59,0.00,,---,0.04,VWS V14.01,2013-04-25 20:50:00,
2013-04-25 16:55:00,64.8,50.1,30.15,ENE,57,0.0,0.0,59,0.00,,---,0.04,VWS V14.01,2013-04-25 20:55:00,
2013-04-25 17:00:00,65.1,50.5,30.15,ESE,110,0.0,0.0,59,0.00,,---,0.04,VWS V14.01,2013-04-25 21:00:00,
2013-04-25 17:05:00,65.3,50.2,30.15,NNE,18,0.0,0.0,58,0.00,,---,0.04,VWS V14.01,2013-04-25 21:05:00,
2013-04-25 17:10:00,65.1,49.5,30.15,ESE,108,0.0,0.0,57,0.00,,---,0.04,VWS V14.01,2013-04-25 21:10:00,
2013-04-25 17:15:00,64.9,49.4,30.15,NE,43,0.0,0.0,57,0.00,,---,0.04,VWS V14.01,2013-04-25 21:15:00,
2013-04-25 17:20:00,65.1,49.5,30.15,ESE,106,0.0,0.0,57,0.00,,---,0.04,VWS V14.01,2013-04-25 21:20:00,
2013-04-25 17:25:00,64.9,49.4,30.15,East,97,0.0,0.0,57,0.00,,---,0.04,VWS V14.01,2013-04-25 21:25:00,
2013-04-25 17:30:00,64.9,49.4,30.15,East,94,0.0,0.0,57,0.00,,---,0.04,VWS V14.01,2013-04-25 21:30:00,
2013-04-25 17:35:00,64.9,49.4,30.15,ENE,64,0.0,0.0,57,0.00,,---,0.04,VWS V14.01,2013-04-25 21:35:00,
2013-04-25 17:40:00,64.8,49.2,30.15,NE,47,0.0,0.0,57,0.00,,---,0.04,VWS V14.01,2013-04-25 21:40:00,
2013-04-25 17:45:00,64.6,49.0,30.15,ENE,75,0.0,0.0,57,0.00,,---,0.04,VWS V14.01,2013-04-25 21:45:00,
2013-04-25 17:50:00,64.2,48.2,30.15,SE,146,0.0,0.0,56,0.00,,---,0.04,VWS V14.01,2013-04-25 21:50:00,
2013-04-25 17:55:00,64.0,48.0,30.15,East,97,0.0,0.0,56,0.00,,---,0.04,VWS V14.01,2013-04-25 21:55:00,
2013-04-25 18:00:00,63.7,47.2,30.15,ENE,69,8.1,8.3,55,0.00,,---,0.04,VWS V14.01,2013-04-25 22:00:00,
2013-04-25 18:05:00,63.5,47.1,30.15,NE,55,12.4,12.4,55,0.00,,---,0.04,VWS V14.01,2013-04-25 22:05:00,
2013-04-25 18:10:00,63.3,46.9,30.15,East,100,0.0,7.6,55,0.00,,---,0.04,VWS V14.01,2013-04-25 22:10:00,
2013-04-25 18:15:00,63.3,46.9,30.15,ENE,66,0.0,2.7,55,0.00,,---,0.04,VWS V14.01,2013-04-25 22:15:00,
2013-04-25 18:20:00,63.1,46.2,30.15,NE,46,0.0,0.0,54,0.00,,---,0.04,VWS V14.01,2013-04-25 22:20:00,
2013-04-25 18:25:00,63.0,46.1,30.15,ESE,111,0.0,0.0,54,0.00,,---,0.04,VWS V14.01,2013-04-25 22:25:00,
2013-04-25 18:30:00,63.0,46.6,30.15,NE,48,0.0,0.0,55,0.00,,---,0.04,VWS V14.01,2013-04-25 22:30:00,
2013-04-25 18:35:00,62.6,46.2,30.15,NE,34,0.0,0.0,55,0.00,,---,0.04,VWS V14.01,2013-04-25 22:35:00,
2013-04-25 18:40:00,62.4,46.1,30.15,East,82,0.0,0.0,55,0.00,,---,0.04,VWS V14.01,2013-04-25 22:40:00,
2013-04-25 18:45:00,62.1,45.7,30.15,ENE,60,0.0,0.0,55,0.00,,---,0.04,VWS V14.01,2013-04-25 22:45:00,
2013-04-25 18:50:00,61.9,45.5,30.15,ESE,118,5.4,7.6,55,0.00,,---,0.04,VWS V14.01,2013-04-25 22:50:00,
2013-04-25 18:55:00,61.5,45.2,30.15,East,81,11.4,11.4,55,0.00,,---,0.04,VWS V14.01,2013-04-25 22:55:00,
2013-04-25 19:00:00,61.3,45.0,30.15,East,98,6.0,6.0,55,0.00,,---,0.04,VWS V14.01,2013-04-25 23:00:00,
2013-04-25 19:05:00,61.3,45.5,30.15,East,86,0.0,5.4,56,0.00,,---,0.04,VWS V14.01,2013-04-25 23:05:00,
2013-04-25 19:10:00,61.0,45.2,30.15,ESE,115,7.4,7.4,56,0.00,,---,0.04,VWS V14.01,2013-04-25 23:10:00,
2013-04-25 19:15:00,61.0,45.2,30.15,ENE,70,9.4,9.4,56,0.00,,---,0.04,VWS V14.01,2013-04-25 23:15:00,
2013-04-25 19:20:00,60.8,45.0,30.15,ENE,74,0.0,4.0,56,0.00,,---,0.04,VWS V14.01,2013-04-25 23:20:00,
2013-04-25 19:25:00,60.6,44.8,30.15,East,82,0.0,6.3,56,0.00,,---,0.04,VWS V14.01,2013-04-25 23:25:00,
2013-04-25 19:29:00,60.4,44.2,30.15,East,98,4.7,6.3,55,0.00,,---,0.04,VWS V14.01,2013-04-25 23:29:00,
2013-04-25 19:34:00,60.3,44.0,30.15,NE,54,6.0,6.0,55,0.00,,---,0.04,VWS V14.01,2013-04-25 23:34:00,
2013-04-25 19:39:00,60.1,43.9,30.15,East,83,4.0,7.2,55,0.00,,---,0.04,VWS V14.01,2013-04-25 23:39:00,
2013-04-25 19:44:00,60.1,43.9,30.15,NNE,22,10.1,10.1,55,0.00,,---,0.04,VWS V14.01,2013-04-25 23:44:00,
2013-04-25 19:49:00,60.1,43.9,30.15,NE,55,4.0,4.0,55,0.00,,---,0.04,VWS V14.01,2013-04-25 23:49:00,
2013-04-25 19:54:00,60.1,43.9,30.18,East,88,0.0,0.0,55,0.00,,---,0.04,VWS V14.01,2013-04-25 23:54:00,
2013-04-25 19:59:00,60.1,43.9,30.18,ENE,63,0.0,3.1,55,0.00,,---,0.04,VWS V14.01,2013-04-25 23:59:00,
2013-04-25 20:04:00,59.7,43.5,30.18,NE,44,0.0,5.8,55,0.00,,---,0.04,VWS V14.01,2013-04-26 00:04:00,
2013-04-25 20:09:00,59.7,43.5,30.18,ENE,60,0.0,5.8,55,0.00,,---,0.04,VWS V14.01,2013-04-26 00:09:00,
2013-04-25 20:14:00,59.5,43.4,30.18,ENE,70,4.7,4.7,55,0.00,,---,0.04,VWS V14.01,2013-04-26 00:14:00,
2013-04-25 20:19:00,59.5,43.4,30.18,NE,54,0.0,0.0,55,0.00,,---,0.04,VWS V14.01,2013-04-26 00:19:00,
2013-04-25 20:24:00,59.4,43.2,30.18,ENE,74,0.0,3.6,55,0.00,,---,0.04,VWS V14.01,2013-04-26 00:24:00,
2013-04-25 20:29:00,59.2,43.0,30.18,NNE,20,0.0,0.0,55,0.00,,---,0.04,VWS V14.01,2013-04-26 00:29:00,
2013-04-25 20:34:00,59.2,43.0,30.18,ENE,71,0.0,3.1,55,0.00,,---,0.04,VWS V14.01,2013-04-26 00:34:00,
2013-04-25 20:39:00,59.0,42.9,30.18,North,0,4.0,5.4,55,0.00,,---,0.04,VWS V14.01,2013-04-26 00:39:00,
2013-04-25 20:44:00,59.0,42.9,30.18,East,79,3.4,3.4,55,0.00,,---,0.04,VWS V14.01,2013-04-26 00:44:00,
2013-04-25 20:49:00,58.8,42.7,30.18,East,100,0.0,0.0,55,0.00,,---,0.04,VWS V14.01,2013-04-26 00:49:00,
2013-04-25 20:54:00,58.6,42.5,30.18,NE,53,4.0,4.0,55,0.00,,---,0.04,VWS V14.01,2013-04-26 00:54:00,
2013-04-25 20:59:00,58.5,42.4,30.18,East,85,0.0,0.0,55,0.00,,---,0.04,VWS V14.01,2013-04-26 00:59:00,
2013-04-25 21:04:00,58.5,42.8,30.18,ENE,76,0.0,0.0,56,0.00,,---,0.04,VWS V14.01,2013-04-26 01:04:00,
2013-04-25 21:09:00,58.3,42.7,30.18,NNE,26,0.0,2.2,56,0.00,,---,0.04,VWS V14.01,2013-04-26 01:09:00,
2013-04-25 21:14:00,58.3,42.7,30.18,ENE,62,0.0,0.0,56,0.00,,---,0.04,VWS V14.01,2013-04-26 01:14:00,
2013-04-25 21:19:00,58.3,43.1,30.18,East,89,5.4,5.4,57,0.00,,---,0.04,VWS V14.01,2013-04-26 01:19:00,
2013-04-25 21:24:00,58.1,43.0,30.21,NE,52,0.0,0.0,57,0.00,,---,0.04,VWS V14.01,2013-04-26 01:24:00,
2013-04-25 21:29:00,58.1,43.0,30.21,NNE,27,0.0,0.0,57,0.00,,---,0.04,VWS V14.01,2013-04-26 01:29:00,
2013-04-25 21:34:00,58.1,43.4,30.21,NE,47,0.0,0.0,58,0.00,,---,0.04,VWS V14.01,2013-04-26 01:34:00,
2013-04-25 21:39:00,57.9,43.2,30.18,East,89,0.0,0.0,58,0.00,,---,0.04,VWS V14.01,2013-04-26 01:39:00,
2013-04-25 21:44:00,57.9,43.2,30.18,ENE,66,0.0,3.6,58,0.00,,---,0.04,VWS V14.01,2013-04-26 01:44:00,
2013-04-25 21:49:00,57.7,43.5,30.18,ENE,78,0.0,0.0,59,0.00,,---,0.04,VWS V14.01,2013-04-26 01:49:00,
2013-04-25 21:54:00,57.7,43.5,30.21,NE,51,0.0,3.1,59,0.00,,---,0.04,VWS V14.01,2013-04-26 01:54:00,
2013-04-25 21:59:00,57.6,43.4,30.21,East,92,0.0,2.7,59,0.00,,---,0.04,VWS V14.01,2013-04-26 01:59:00,
2013-04-25 22:04:00,57.6,43.8,30.21,East,93,6.0,6.0,60,0.00,,---,0.04,VWS V14.01,2013-04-26 02:04:00,
2013-04-25 22:09:00,57.6,43.8,30.21,NE,46,0.0,0.0,60,0.00,,---,0.04,VWS V14.01,2013-04-26 02:09:00,
2013-04-25 22:14:00,57.6,43.8,30.21,ENE,74,0.0,0.0,60,0.00,,---,0.04,VWS V14.01,2013-04-26 02:14:00,
2013-04-25 22:19:00,57.6,43.8,30.21,NE,39,0.0,6.3,60,0.00,,---,0.04,VWS V14.01,2013-04-26 02:19:00,
2013-04-25 22:24:00,57.6,43.8,30.21,NNE,30,0.0,0.0,60,0.00,,---,0.04,VWS V14.01,2013-04-26 02:24:00,
2013-04-25 22:29:00,57.4,44.1,30.21,North,10,0.0,0.0,61,0.00,,---,0.04,VWS V14.01,2013-04-26 02:29:00,
2013-04-25 22:34:00,57.4,44.1,30.21,North,10,0.0,0.0,61,0.00,,---,0.04,VWS V14.01,2013-04-26 02:34:00,
2013-04-25 22:39:00,57.4,44.1,30.21,North,2,0.0,0.0,61,0.00,,---,0.04,VWS V14.01,2013-04-26 02:39:00,
2013-04-25 22:44:00,57.2,43.9,30.21,North,6,0.0,2.7,61,0.00,,---,0.04,VWS V14.01,2013-04-26 02:44:00,
2013-04-25 22:49:00,57.2,44.3,30.21,NE,56,0.0,0.0,62,0.00,,---,0.04,VWS V14.01,2013-04-26 02:49:00,
2013-04-25 22:54:00,57.0,44.1,30.21,NNE,20,0.0,4.9,62,0.00,,---,0.04,VWS V14.01,2013-04-26 02:54:00,
2013-04-25 22:59:00,56.8,44.0,30.21,ENE,64,0.0,0.0,62,0.00,,---,0.04,VWS V14.01,2013-04-26 02:59:00,
2013-04-25 23:04:00,56.8,44.4,30.21,NE,36,0.0,2.7,63,0.00,,---,0.04,VWS V14.01,2013-04-26 03:04:00,
2013-04-25 23:09:00,56.8,44.4,30.21,NE,35,0.0,0.0,63,0.00,,---,0.04,VWS V14.01,2013-04-26 03:09:00,
2013-04-25 23:14:00,56.8,44.4,30.21,ENE,69,0.0,0.0,63,0.00,,---,0.04,VWS V14.01,2013-04-26 03:14:00,
2013-04-25 23:19:00,56.8,44.4,30.21,East,82,0.0,4.0,63,0.00,,---,0.04,VWS V14.01,2013-04-26 03:19:00,
2013-04-25 23:24:00,56.8,44.4,30.21,East,79,0.0,0.0,63,0.00,,---,0.04,VWS V14.01,2013-04-26 03:24:00,
2013-04-25 23:29:00,56.8,44.4,30.21,East,91,0.0,0.0,63,0.00,,---,0.04,VWS V14.01,2013-04-26 03:29:00,
2013-04-25 23:34:00,56.8,44.4,30.21,ESE,108,0.0,0.0,63,0.00,,---,0.04,VWS V14.01,2013-04-26 03:34:00,
2013-04-25 23:39:00,56.7,43.8,30.21,East,93,0.0,2.7,62,0.00,,---,0.04,VWS V14.01,2013-04-26 03:39:00,
2013-04-25 23:44:00,56.7,44.2,30.21,ENE,67,0.0,0.0,63,0.00,,---,0.04,VWS V14.01,2013-04-26 03:44:00,
2013-04-25 23:49:00,56.7,44.2,30.21,ENE,67,0.0,0.0,63,0.00,,---,0.04,VWS V14.01,2013-04-26 03:49:00,
2013-04-25 23:54:00,56.7,44.2,30.21,NE,50,0.0,0.0,63,0.00,,---,0.04,VWS V14.01,2013-04-26 03:54:00,
2013-04-25 23:59:00,56.7,44.2,30.21,NE,49,0.0,0.0,63,0.00,,---,0.04,VWS V14.01,2013-04-26 03:59:00,